TimeCDT,TemperatureF,Dew PointF,Humidity,Sea Level PressureIn,VisibilityMPH,Wind Direction,Wind SpeedMPH,Gust SpeedMPH,PrecipitationIn,Events,Conditions,WindDirDegrees,DateUTC
12:53 AM,77.0,73.9,90,30.00,10.0,South,5.8,-,N/A,,Clear,190,2013-07-22 05:53:00
1:53 AM,77.0,73.9,90,30.00,10.0,Variable,4.6,-,N/A,,Clear,0,2013-07-22 06:53:00
2:53 AM,77.0,73.0,88,30.00,10.0,SSW,5.8,-,N/A,,Clear,200,2013-07-22 07:53:00
3:53 AM,75.9,73.0,91,30.00,10.0,SSW,5.8,-,N/A,,Clear,210,2013-07-22 08:53:00
4:53 AM,75.9,73.0,91,30.01,10.0,Variable,3.5,-,N/A,,Clear,0,2013-07-22 09:53:00
5:53 AM,75.0,73.0,94,30.01,10.0,SSW,4.6,-,N/A,,Clear,200,2013-07-22 10:53:00
6:53 AM,75.0,73.0,94,30.02,10.0,SW,3.5,-,N/A,,Partly Cloudy,220,2013-07-22 11:53:00
7:53 AM,78.1,73.9,87,30.03,10.0,Variable,4.6,-,0.00,Rain,Light Rain,0,2013-07-22 12:53:00
8:53 AM,80.1,75.0,85,30.04,10.0,Variable,5.8,-,0.00,,Overcast,0,2013-07-22 13:53:00
9:28 AM,80.6,75.2,84,30.03,10.0,Variable,5.8,-,N/A,,Overcast,0,2013-07-22 14:28:00
9:53 AM,81.0,75.9,85,30.05,10.0,Variable,4.6,-,N/A,,Overcast,0,2013-07-22 14:53:00
10:53 AM,86.0,75.9,72,30.05,10.0,SW,9.2,17.3,N/A,,Mostly Cloudy,220,2013-07-22 15:53:00
11:21 AM,87.8,75.2,66,30.03,10.0,WSW,8.1,-,N/A,,Mostly Cloudy,240,2013-07-22 16:21:00
11:53 AM,87.1,73.9,65,30.04,10.0,West,9.2,18.4,N/A,,Mostly Cloudy,260,2013-07-22 16:53:00
12:53 PM,90.0,75.0,61,30.03,10.0,West,9.2,-,N/A,,Mostly Cloudy,270,2013-07-22 17:53:00
1:53 PM,91.0,73.9,57,30.01,10.0,WSW,8.1,16.1,N/A,,Scattered Clouds,240,2013-07-22 18:53:00
2:53 PM,93.0,73.0,52,29.99,10.0,West,6.9,-,N/A,,Partly Cloudy,270,2013-07-22 19:53:00
3:53 PM,91.9,73.0,54,29.96,10.0,Variable,5.8,-,N/A,,Partly Cloudy,0,2013-07-22 20:53:00
4:53 PM,91.0,73.0,55,29.96,10.0,Variable,6.9,-,N/A,,Mostly Cloudy,0,2013-07-22 21:53:00
5:50 PM,89.6,75.2,62,29.95,10.0,South,9.2,18.4,N/A,,Scattered Clouds,190,2013-07-22 22:50:00
5:53 PM,89.1,75.0,63,29.97,10.0,SSW,8.1,18.4,N/A,,Partly Cloudy,210,2013-07-22 22:53:00
6:53 PM,87.1,75.0,67,29.97,10.0,South,6.9,-,N/A,,Clear,190,2013-07-22 23:53:00
7:53 PM,82.9,75.0,77,29.96,10.0,South,5.8,-,N/A,,Clear,170,2013-07-23 00:53:00
8:53 PM,80.1,75.0,85,29.99,10.0,North,-9999.0,-,N/A,,Clear,0,2013-07-23 01:53:00
9:53 PM,79.0,75.0,88,29.99,10.0,South,6.9,-,N/A,,Clear,180,2013-07-23 02:53:00
10:53 PM,79.0,75.0,88,29.98,10.0,South,4.6,-,N/A,,Clear,180,2013-07-23 03:53:00
11:53 PM,80.1,75.9,87,29.99,10.0,SSW,5.8,-,N/A,,Clear,200,2013-07-23 04:53:00